Hourly Data Report for March 27, 2017

All times are specified in Local Standard Time (LST). Add 1 hour to adjust for Daylight Saving Time where and when it is observed.

TORONTO CITY
ONTARIO

43°40'00.000" N
79°24'00.000" W
112.50 m
6158355
71508
XTO

Download Data

Hourly Data (March 2017)
Hourly Data Report for March 27, 2017
TIME Temp Definition
°C
Dew Point Definition
°C
Rel Hum Definition
%
Wind Dir Definition
10's deg

Wind Spd Definition
km/h
Visibility Definition
km
Stn Press Definition
kPa
Hmdx Definition


Wind Chill Definition


Weather Definition


00:00 6.5 5.3 92 LegendMM LegendMM   99.99     LegendNANA
01:00 6.6 5.3 91 LegendMM LegendMM   99.92     LegendNANA
02:00 6.7 5.3 91 LegendMM LegendMM   99.89     LegendNANA
03:00 6.8 5.4 91 LegendMM LegendMM   99.81     LegendNANA
04:00 6.6 5.8 95 LegendMM LegendMM   99.77     LegendNANA
05:00 6.6 5.9 95 LegendMM LegendMM   99.78     LegendNANA
06:00 6.8 6.1 95 LegendMM LegendMM   99.80     LegendNANA
07:00 7.3 6.5 95 LegendMM LegendMM   99.83     LegendNANA
08:00 8.1 7.2 94 LegendMM LegendMM   99.80     LegendNANA
09:00 8.2 7.5 95 LegendMM LegendMM   99.79     LegendNANA
10:00 8.9 8.0 94 LegendMM LegendMM   99.84     LegendNANA
11:00 10.1 8.3 89 LegendMM LegendMM   99.85     LegendNANA
12:00 11.4 9.1 85 LegendMM LegendMM   99.83     LegendNANA
13:00 13.7 10.0 78 LegendMM LegendMM   99.79     LegendNANA
14:00 13.9 10.2 78 LegendMM LegendMM   99.78     LegendNANA
15:00 12.7 8.7 77 LegendMM LegendMM   99.77     LegendNANA
16:00 12.9 8.7 76 LegendMM LegendMM   99.76     LegendNANA
17:00 12.8 8.7 76 LegendMM LegendMM   99.78     LegendNANA
18:00 14.1 10.0 76 LegendMM LegendMM   99.79     LegendNANA
19:00 13.8 10.0 78 LegendMM LegendMM   99.82     LegendNANA
20:00 13.5 9.7 78 LegendMM LegendMM   99.84     LegendNANA
21:00 13.0 9.6 80 LegendMM LegendMM   99.84     LegendNANA
22:00 10.8 8.4 85 LegendMM LegendMM   99.88     LegendNANA
23:00 10.5 9.2 92 LegendMM LegendMM   99.86     LegendNANA

Notes on Data Quality.

Legend

  • E = Estimated
  • M = Missing
  • NA = Not Available
Date modified: